Orbital Elements at Epoch 2459200.5 (2020-Dec-17.0) TDB
Reference: JPL 21 (heliocentric ecliptic J2000)
Element | Value | Uncertainty (1-sigma) | Units |
e | .09128176457235754 | 4.0021e-08 | |
a | 3.211695973627813 | 2.9655e-08 | au |
q | 2.91852669788513 | 1.4067e-07 | au |
i | 3.617000595149824 | 4.3589e-06 | deg |
node | 209.3512742274935 | 7.2708e-05 | deg |
peri | 247.2631756494644 | 7.9259e-05 | deg |
M | 249.8387560069405 | 3.5557e-05 | deg |
tp | 2459843.819030126088 (2022-Sep-21.31903013) | 0.00021179 | TDB |
period | 2102.326030922301 5.76 | 2.9118e-05 7.972e-08 | d yr |
n | .1712389014381686 | 2.3717e-09 | deg/d |
Q | 3.504865249370495 | 3.2362e-08 | au |
|
| | Orbit Determination Parameters
Additional Information
|